Theta_e
285 285 285 286 287 286 285 285 286 286 286 287 287 286 287 287 285 283 280 281 281 282 284 282 284 286 286 286 286 287 287 288 289 289 287 285 286 292 296 298 298 297 297 297 296 295 295 295 295 296 296 297 298 298 298 298 295 296 296 297 297 298 298 298 299 299 298 298 297 298 297 297 297 298
285 285 285 285 285 285 285 285 285 285 285 284 285 286 286 287 286 285 283 283 282 282 282 284 283 284 285 286 286 286 286 289 289 288 286 285 285 291 294 295 296 297 297 296 296 296 295 294 294 294 295 296 296 297 297 297 296 296 297 297 297 298 298 298 299 298 297 297 297 297 297 297 297 297
285 284 284 285 284 285 285 285 284 284 284 284 283 284 285 285 287 287 284 283 282 285 283 283 284 283 285 286 286 286 286 288 289 287 285 284 287 289 291 293 295 296 297 296 296 296 295 294 294 294 294 296 296 296 296 296 296 296 296 297 297 297 298 298 297 297 296 296 296 296 296 296 297 297
285 285 284 285 285 285 284 284 284 284 284 284 284 284 284 284 285 286 286 284 285 283 285 284 284 284 284 285 284 284 285 286 289 286 285 284 287 286 286 291 293 295 296 296 295 295 295 295 294 294 294 295 296 296 296 296 296 296 296 296 297 297 297 297 296 296 296 295 295 295 296 296 296 296
284 284 284 284 285 284 284 284 284 284 284 284 284 284 284 284 284 284 284 284 285 283 282 282 283 283 283 283 284 284 284 283 286 287 285 284 283 283 284 285 290 293 295 295 295 295 295 295 294 294 294 294 295 295 295 295 295 295 295 295 295 296 297 296 296 295 295 295 295 295 295 295 295 295
285 284 284 284 284 284 284 284 284 284 284 283 283 283 283 283 283 283 284 284 284 284 280 280 280 281 283 283 284 284 283 283 284 284 283 283 283 283 283 283 285 291 293 294 294 295 295 295 295 294 294 294 294 295 295 295 294 295 295 294 294 295 296 296 296 295 295 294 294 294 295 295 295 295
284 283 283 283 283 284 283 283 284 284 284 284 283 284 284 283 284 283 283 283 283 282 281 280 280 280 281 283 283 284 284 284 284 283 282 282 283 283 283 282 283 289 293 294 294 295 294 295 295 294 294 294 294 294 295 294 294 294 294 294 294 294 294 294 294 294 294 294 294 294 294 294 295 295
283 283 283 283 283 283 282 283 282 282 283 283 283 284 284 284 284 284 282 283 284 283 282 280 280 280 281 282 282 283 283 282 282 283 282 282 281 282 282 281 281 285 292 293 293 294 294 294 294 294 294 294 294 294 294 294 293 293 293 293 293 293 293 293 293 293 292 293 293 294 294 294 294 293
284 283 283 283 283 282 282 283 282 282 282 282 283 283 284 284 284 284 283 283 282 283 282 281 280 280 281 282 281 283 282 280 281 281 281 281 281 280 280 280 281 284 289 291 291 292 293 293 293 294 294 294 294 294 294 294 293 292 292 292 292 293 293 292 292 291 291 291 291 292 293 293 293 293
283 283 283 284 283 283 282 283 283 282 282 282 282 282 283 283 283 282 282 282 283 282 283 283 279 279 279 279 279 281 282 280 279 279 279 278 279 279 278 279 280 281 283 285 288 290 291 292 293 293 294 294 294 294 294 293 293 292 291 291 291 291 292 292 292 291 290 290 290 291 291 292 292 292
282 283 283 283 283 283 283 283 283 283 283 283 282 283 282 282 282 282 282 282 282 282 282 281 280 280 280 280 279 280 281 281 280 279 278 277 278 278 279 279 279 280 281 285 288 288 288 290 290 292 293 294 294 294 293 293 292 291 291 291 291 291 291 291 291 290 290 290 290 290 290 290 291 291
282 282 283 283 283 283 284 284 284 284 283 284 283 283 283 282 282 282 282 282 282 282 282 282 280 279 279 279 278 279 279 279 278 279 278 277 277 277 279 280 279 279 280 280 283 287 288 289 290 291 292 293 293 293 293 292 292 290 291 291 291 291 290 290 290 290 289 290 290 290 290 289 289 290
282 282 283 283 283 284 285 286 286 286 286 285 284 284 283 283 283 283 282 282 282 282 282 282 281 278 278 279 279 277 278 278 279 279 279 278 279 278 278 279 280 280 279 279 280 282 284 284 284 285 286 288 290 291 291 290 290 290 291 291 291 290 290 290 290 289 289 289 289 290 290 289 289 289
281 282 282 283 284 285 285 285 286 287 288 288 286 285 285 284 284 283 283 283 282 282 282 282 281 278 278 279 279 279 279 280 280 279 278 277 278 278 277 278 279 280 279 278 278 280 283 282 282 283 283 285 287 287 288 287 288 289 291 291 290 290 290 290 289 289 289 289 289 289 289 289 289 289
281 281 281 282 283 284 284 284 286 287 288 288 288 288 288 287 285 284 283 283 283 283 282 283 282 281 280 280 280 280 280 280 280 279 279 278 278 277 276 275 277 280 279 278 278 278 281 282 280 281 281 282 283 285 285 289 290 290 290 290 290 290 290 289 289 289 289 289 289 289 289 289 289 288
280 280 281 281 282 282 282 282 283 284 287 288 288 288 288 289 289 289 286 284 284 283 283 283 283 283 282 281 281 280 280 279 280 280 279 279 279 278 277 277 277 278 280 278 278 278 280 281 280 279 280 281 281 283 286 289 290 290 290 290 290 290 289 289 289 289 289 289 289 289 289 289 289 288
280 280 280 280 281 282 284 284 283 283 283 285 287 288 288 288 289 289 290 290 286 285 285 284 283 283 283 283 281 281 281 281 279 279 279 279 279 279 279 279 279 278 280 279 278 277 279 279 279 278 279 280 280 282 287 289 290 290 289 289 289 289 288 288 289 289 289 289 289 289 289 289 288 288
280 280 280 280 280 281 281 282 282 282 282 282 283 283 284 284 285 288 289 289 289 288 286 285 284 285 285 284 284 282 283 280 279 279 279 280 279 279 280 281 281 279 281 278 278 277 278 279 278 277 278 280 280 280 284 288 290 290 289 288 288 288 288 289 289 289 289 289 289 289 289 288 288 288
280 280 280 280 280 280 281 281 282 281 281 282 282 282 282 282 283 284 285 286 286 287 287 287 286 286 287 286 286 282 283 282 282 282 281 281 281 281 282 281 281 280 281 280 279 276 278 278 277 277 278 279 279 280 284 288 289 289 289 289 288 288 289 289 288 288 289 289 288 289 288 288 288 288
279 279 280 280 280 280 280 283 285 285 283 281 280 280 281 282 282 283 286 287 288 287 287 287 287 287 287 288 287 284 282 283 283 283 282 280 280 280 279 278 279 277 279 280 279 277 276 278 277 277 278 278 277 278 279 286 288 288 289 288 288 289 288 288 288 289 288 288 288 288 288 288 288 287
276 277 277 278 279 279 279 282 285 286 286 282 281 280 280 281 281 282 283 287 289 289 289 289 290 290 290 291 291 291 288 284 283 282 280 279 279 278 277 277 277 276 278 279 279 278 274 277 277 277 276 277 277 277 277 280 287 288 288 288 289 288 288 289 288 288 288 288 288 288 288 288 287 287
274 275 278 279 278 278 279 282 284 285 284 282 281 281 280 280 280 281 283 283 284 288 289 289 289 289 290 290 291 291 291 289 286 281 279 280 280 277 278 277 277 277 277 278 280 277 276 277 277 275 273 275 276 276 277 278 282 287 287 289 289 288 288 288 288 288 288 288 287 287 287 287 286 284
273 273 275 277 277 277 279 283 284 284 283 281 281 281 280 280 279 281 282 282 281 282 283 284 286 286 287 287 287 288 290 290 286 283 282 282 280 278 278 278 275 272 274 278 280 277 276 275 276 275 273 270 273 274 276 277 278 281 283 284 285 288 288 288 288 288 288 287 287 286 287 286 286 281
271 272 272 274 277 279 280 281 282 284 285 282 281 281 280 280 279 282 282 282 282 281 282 282 283 283 285 285 286 286 286 287 286 284 283 283 282 280 279 279 278 276 277 278 280 277 275 276 275 276 275 272 271 273 275 275 277 278 280 280 281 285 287 286 286 288 287 287 286 286 285 285 285 279
270 270 271 272 275 277 279 280 282 283 284 284 282 282 281 281 282 284 281 281 284 282 281 281 281 282 283 283 284 285 285 285 286 285 284 283 283 282 280 280 279 278 279 278 282 278 275 275 275 276 274 273 272 272 273 275 276 276 278 278 278 279 282 283 284 283 286 286 285 285 285 285 285 281
270 271 271 272 274 277 278 279 280 281 283 284 283 283 286 286 286 284 283 281 281 281 281 280 280 280 280 281 282 283 284 284 285 285 285 284 283 283 283 282 280 279 278 278 284 279 277 274 275 275 274 272 271 273 272 272 275 275 276 276 277 278 280 280 279 277 277 278 279 281 281 283 284 284
268 270 271 273 276 277 278 279 280 281 282 282 282 285 286 287 287 286 283 281 279 280 280 279 279 279 279 279 280 281 282 283 284 284 285 284 283 283 283 283 283 283 281 279 281 280 279 276 277 276 274 274 272 272 273 271 271 275 274 275 275 276 277 277 276 276 275 275 275 280 281 281 282 282
268 268 268 270 274 276 277 279 280 280 281 280 283 284 285 286 287 285 283 282 280 280 279 279 279 279 279 280 280 280 282 283 283 283 284 284 283 282 282 282 282 281 280 279 280 280 279 277 276 277 277 275 272 271 270 273 273 273 272 275 274 275 275 275 275 275 275 275 274 275 276 276 278 279
268 271 273 274 275 276 277 278 279 279 280 282 282 283 284 284 283 284 283 282 281 280 279 279 280 280 280 280 280 281 281 282 282 282 282 282 282 280 278 277 276 277 279 279 280 280 279 279 277 277 277 276 275 274 274 271 272 272 272 272 271 273 274 275 274 274 274 274 274 274 274 275 274 276
274 274 274 275 275 275 275 274 275 276 277 280 281 282 283 282 282 282 282 282 282 280 280 280 279 280 280 280 280 280 280 280 280 280 278 275 274 274 274 274 272 273 275 278 280 280 279 279 278 277 276 275 275 274 273 272 270 272 273 272 272 274 273 274 274 274 274 273 274 274 274 275 274 275
267 268 270 270 273 274 276 276 277 277 278 278 279 280 280 281 281 282 282 281 282 281 281 280 280 280 281 281 280 279 279 279 279 280 277 276 274 273 274 274 271 271 271 273 276 277 278 278 277 277 275 274 273 273 274 273 271 271 272 273 272 268 272 273 273 273 274 274 274 274 274 274 274 275
267 267 271 272 271 271 272 273 274 275 276 278 279 280 280 280 280 282 283 283 282 282 282 281 280 280 280 278 279 279 278 278 278 278 276 276 273 273 273 272 270 269 269 270 271 273 274 274 275 276 276 274 272 272 272 271 271 271 271 272 272 272 273 271 272 273 274 273 272 272 272 273 272 273
268 269 270 270 270 270 271 271 272 273 275 277 280 280 280 279 279 280 281 281 281 282 281 280 280 280 279 278 278 277 277 277 277 276 276 276 274 272 273 273 271 268 268 268 268 270 271 272 272 273 272 272 273 273 271 269 269 271 270 271 271 271 271 272 273 272 273 272 270 271 271 272 272 273
270 269 269 269 269 269 270 271 271 272 273 275 277 278 280 280 279 279 280 280 281 282 281 281 281 280 279 278 277 276 276 276 276 275 276 274 273 272 271 272 270 269 270 268 268 268 269 269 270 269 270 269 270 270 271 270 268 269 270 271 270 269 271 272 272 272 272 271 270 269 269 270 272 272
269 268 268 268 269 269 270 270 271 272 273 274 275 276 278 279 279 279 280 280 281 281 281 281 281 280 278 277 276 275 275 275 274 274 274 274 272 272 272 271 269 268 268 267 266 268 268 268 268 267 267 267 267 267 272 270 269 268 269 269 270 269 270 271 271 272 272 271 271 268 268 269 270 272
269 269 268 268 269 269 269 270 271 271 272 273 274 276 276 277 278 279 279 280 281 281 281 280 279 279 278 277 276 275 275 274 272 272 271 271 271 271 272 271 269 268 268 267 267 268 268 268 268 267 265 265 265 264 266 272 272 270 268 267 269 269 270 271 271 271 271 270 271 269 267 266 268 270
268 268 268 268 268 269 269 270 270 271 271 272 274 275 275 276 277 279 280 281 280 280 280 280 279 278 277 276 275 274 273 272 271 271 270 271 271 271 270 270 269 268 268 267 268 267 268 267 268 268 266 265 264 264 266 270 271 274 271 268 268 269 269 270 269 269 270 270 269 270 268 268 268 270
269 269 268 268 268 269 269 269 270 270 271 272 274 275 276 276 277 278 279 279 279 279 279 279 278 277 277 275 274 273 272 272 271 270 270 270 269 269 270 269 268 267 267 267 267 267 267 267 267 267 267 265 264 265 264 267 268 270 274 271 268 268 270 268 267 266 267 270 268 269 270 268 268 269
269 269 269 268 268 269 269 269 270 270 271 272 273 275 275 275 276 277 277 278 279 279 279 278 277 276 275 275 274 272 271 270 270 269 269 269 269 269 269 269 268 267 267 266 266 266 266 266 267 267 268 267 267 267 267 267 266 268 273 275 270 269 268 268 266 267 266 266 267 269 268 270 271 272
270 271 271 270 269 269 269 269 270 271 272 273 274 276 276 275 276 277 278 278 278 278 278 277 276 275 274 274 273 272 271 271 270 270 269 269 269 269 269 269 268 267 266 266 265 265 266 265 267 267 268 268 267 268 267 267 266 268 270 273 274 271 269 269 266 266 265 267 267 266 262 266 263 267
271 271 271 272 271 270 270 270 271 271 272 273 275 276 276 275 276 277 277 277 276 276 276 275 274 274 274 273 273 272 270 270 270 269 269 269 268 269 269 269 267 267 266 265 265 265 265 266 268 271 268 267 267 269 267 265 263 265 267 270 274 274 273 272 269 268 265 268 267 263 263 262 262 264
269 269 271 272 272 272 271 271 271 272 273 274 275 275 274 274 275 277 277 277 276 276 275 274 274 273 273 273 272 271 270 269 269 268 268 268 268 268 268 268 267 267 266 265 265 265 268 269 270 269 267 267 267 266 264 265 264 264 266 266 266 272 274 273 273 272 270 268 265 262 262 262 264 262
267 267 268 270 272 273 272 272 272 272 273 274 275 275 273 273 273 276 276 275 275 274 274 273 273 273 272 272 271 271 270 269 268 268 268 268 268 267 267 267 267 267 267 267 267 267 268 268 268 267 267 266 266 266 265 265 264 264 264 264 265 265 268 271 272 273 273 273 272 270 268 265 263 261
263 264 266 269 271 273 274 273 273 274 274 275 275 273 272 272 273 274 275 274 274 273 273 272 271 271 270 270 270 270 269 269 268 267 267 267 267 267 267 267 267 266 266 266 266 266 267 267 267 267 265 265 266 265 264 263 262 263 263 264 264 264 264 265 266 269 270 271 272 272 272 273 272 272
262 263 265 267 268 269 270 272 273 274 273 272 270 270 270 271 272 272 272 272 272 271 270 270 270 270 269 269 269 268 268 269 268 267 267 267 267 267 267 267 266 266 265 266 265 265 266 266 266 266 265 265 265 264 264 264 263 263 263 263 262 264 263 264 263 262 263 263 267 270 270 271 271 271
Wind_Speed
7 7 8 9 8 8 6 7 7 7 7 8 8 8 12 9 11 10 7 8 8 7 9 8 9 12 11 11 9 10 11 10 13 11 10 10 9 14 22 22 22 22 22 21 20 20 18 18 17 15 15 14 14 14 14 10 1 3 5 7 7 7 8 8 8 7 5 5 3 3 3 2 1 1
6 7 7 7 7 7 7 8 7 7 8 7 7 8 9 9 13 12 11 12 9 7 6 8 6 9 12 11 9 10 11 11 15 11 11 10 10 15 21 22 22 23 23 22 21 21 20 19 18 17 16 16 15 15 15 12 10 8 8 8 9 10 9 9 8 7 6 4 3 2 3 2 1 2
6 7 8 8 8 7 8 8 7 7 7 7 7 7 7 8 12 13 9 12 6 8 9 10 8 9 13 11 10 9 9 11 16 12 11 11 11 16 16 20 22 22 23 22 22 21 21 20 19 19 18 17 17 16 14 13 12 11 11 11 11 11 10 10 8 7 6 4 3 3 3 3 3 3
6 7 9 9 8 7 7 8 7 8 8 7 7 7 7 8 9 10 11 13 15 7 10 10 11 11 12 12 12 11 9 9 18 12 12 11 10 12 11 17 23 22 23 22 22 21 21 20 20 19 18 18 17 16 16 15 14 13 13 12 12 12 11 10 8 8 7 5 5 4 4 4 4 4
6 7 8 9 9 7 8 8 7 8 7 7 7 7 7 8 8 8 10 13 14 5 5 4 7 9 9 9 12 12 11 9 11 13 11 10 11 11 11 11 18 22 23 23 22 22 21 21 20 20 19 18 18 17 17 15 15 14 14 13 12 13 12 10 10 9 8 7 6 6 6 6 5 5
7 7 8 10 9 8 9 9 9 8 8 8 8 8 8 8 8 8 8 11 10 12 3 5 1 5 8 10 10 14 14 13 10 12 11 10 12 11 10 10 11 21 22 22 22 22 22 21 21 21 20 19 19 18 18 17 16 15 15 14 14 12 12 11 11 10 9 8 8 8 7 7 6 6
8 8 8 9 8 6 8 9 8 8 8 8 9 11 8 9 10 8 9 8 10 10 8 6 6 8 8 12 12 14 12 12 12 14 13 13 11 10 11 11 9 15 22 22 21 22 22 22 22 22 21 20 20 19 19 18 17 16 16 16 15 13 11 11 10 10 8 9 9 9 8 8 8 7
8 9 9 8 8 8 10 10 8 8 8 9 9 10 9 9 11 8 7 10 11 8 8 6 9 7 9 10 5 8 7 9 10 12 12 8 9 9 9 10 10 12 22 21 21 22 23 23 22 23 22 22 22 21 20 19 18 18 18 17 16 14 14 12 11 10 10 10 10 9 9 8 7 6
9 9 9 9 7 8 10 9 8 7 8 9 9 10 9 9 9 8 8 10 9 10 11 7 5 5 7 5 5 9 11 8 7 6 9 11 11 10 8 7 8 11 20 21 22 21 22 23 24 24 24 23 23 22 21 20 19 19 19 17 16 15 14 14 13 12 11 10 10 9 8 8 7 6
8 9 10 9 8 8 10 10 8 7 9 9 10 10 10 9 7 9 9 9 10 11 12 10 6 5 8 5 5 9 11 11 9 7 7 4 7 8 8 10 9 8 9 10 12 16 19 23 25 24 23 24 24 23 22 21 21 20 19 18 17 16 15 15 14 14 13 12 12 10 9 8 7 5
8 9 9 10 9 10 10 10 9 9 9 9 10 11 10 9 8 10 10 9 11 11 12 10 8 8 8 8 10 7 10 10 11 14 12 9 8 8 12 12 9 8 10 10 13 12 11 13 13 20 24 24 24 24 23 22 22 21 20 19 18 17 17 16 16 15 15 14 12 11 10 7 6 6
9 9 9 9 10 10 10 10 10 9 10 9 10 9 8 8 9 10 10 9 10 11 11 12 9 8 8 7 2 2 6 8 8 8 10 14 13 14 13 13 12 11 10 11 10 11 12 13 18 22 23 24 24 24 23 24 22 22 21 20 19 18 18 18 17 16 16 14 13 12 10 9 8 7
10 10 9 10 10 11 14 17 15 13 11 9 10 9 8 9 9 10 9 9 10 10 11 12 8 7 8 10 10 9 12 16 18 12 9 10 10 9 8 10 10 10 12 10 9 10 11 10 11 10 10 13 20 20 22 17 23 23 22 21 21 20 20 19 18 17 17 15 14 13 11 11 10 9
12 11 11 11 16 17 18 18 18 18 18 19 14 11 8 9 10 10 10 10 10 10 11 12 10 8 11 12 13 14 15 13 6 8 13 13 8 7 10 8 8 9 9 10 12 11 8 10 10 10 12 10 13 10 12 11 14 19 24 22 21 21 20 20 19 18 17 16 15 14 13 12 11 10
13 12 12 11 13 14 15 15 19 19 20 20 21 21 19 15 12 10 12 12 11 11 12 11 11 11 13 14 12 13 11 10 13 14 13 12 9 11 12 14 7 9 12 11 9 10 10 10 13 12 11 11 11 10 11 14 19 20 23 22 21 21 20 20 20 19 18 17 16 15 14 13 12 11
12 13 12 11 10 10 12 12 11 14 18 20 21 22 21 21 23 20 15 13 11 12 12 12 12 12 14 13 11 11 9 10 11 10 11 14 15 14 14 13 12 8 16 12 12 13 10 11 12 11 12 11 11 12 15 21 22 22 22 21 21 21 21 21 20 19 18 17 16 16 15 14 13 13
15 13 12 12 11 10 16 14 12 12 12 16 21 21 22 22 23 23 25 23 16 10 12 13 14 14 13 13 11 12 13 9 13 11 12 14 14 13 14 14 10 7 16 13 12 15 13 13 13 13 11 10 10 12 18 23 24 24 24 23 23 22 22 21 20 19 18 17 17 16 16 15 15 14
15 15 14 13 13 12 12 11 12 12 12 12 12 12 12 13 17 22 25 25 26 21 15 13 16 15 13 13 9 9 12 14 15 14 15 13 13 13 17 15 8 6 14 19 16 12 9 12 12 13 11 10 11 11 16 26 26 25 24 24 24 24 23 22 20 19 19 19 18 17 17 16 16 15
16 16 15 15 15 15 13 12 12 12 12 12 12 12 13 13 13 13 14 15 15 15 15 16 18 18 14 13 12 6 13 16 15 16 16 16 16 16 12 6 7 9 12 14 10 14 11 9 11 14 11 10 11 10 15 25 26 26 25 25 25 25 24 22 21 20 19 18 18 18 17 17 16 16
15 14 14 15 15 16 16 15 20 19 14 12 13 15 14 13 13 13 15 19 18 16 15 15 17 17 16 15 14 8 10 11 11 10 8 6 7 10 10 14 9 7 9 14 13 10 6 10 14 11 7 8 9 9 9 20 26 25 25 26 26 26 24 23 21 20 20 19 19 17 17 17 17 16
15 16 16 17 17 17 18 18 23 24 21 15 15 15 15 14 13 13 13 18 23 23 23 23 23 22 21 21 23 23 18 13 10 9 10 14 12 12 13 13 9 10 9 11 13 9 4 9 11 7 6 9 9 9 10 10 20 25 25 26 27 25 24 22 21 21 20 20 19 17 17 17 17 16
14 18 30 26 19 19 19 22 27 27 21 16 16 16 16 16 15 15 13 10 12 21 24 25 26 26 24 22 23 24 24 22 15 14 17 15 11 13 14 16 12 8 7 10 12 8 9 6 7 6 2 3 4 7 6 8 10 19 21 26 25 24 22 22 21 20 20 20 18 17 17 17 15 10
14 14 19 30 28 24 25 32 31 31 24 17 16 16 16 17 17 16 14 13 11 10 12 15 17 17 20 19 16 16 23 22 19 18 17 12 13 16 17 14 7 6 9 12 14 13 7 10 9 10 6 6 3 3 7 8 9 9 9 12 15 21 21 21 20 21 22 20 19 17 17 17 13 6
15 15 16 21 31 35 35 36 38 35 34 23 18 16 16 16 19 15 15 14 12 12 13 13 13 14 13 12 12 13 13 15 16 18 16 14 14 16 16 14 14 15 10 8 15 14 4 7 10 10 8 7 8 7 9 8 9 8 7 9 8 16 19 19 17 23 21 19 18 17 17 17 14 6
15 14 14 15 25 34 35 35 35 35 34 33 21 19 18 18 17 16 14 13 17 13 13 12 11 11 10 10 10 11 13 13 14 14 15 15 15 15 15 15 15 16 8 10 23 14 9 10 11 9 7 1 2 5 7 8 8 10 9 9 9 8 8 9 8 11 18 19 17 17 17 16 17 10
16 16 15 13 20 31 32 33 35 37 34 36 24 19 22 23 24 19 15 11 9 10 11 10 10 10 10 10 10 11 12 12 14 14 14 15 16 15 15 16 16 14 11 11 26 15 10 9 13 14 9 6 2 6 8 7 9 6 8 7 7 7 7 8 8 7 6 5 7 10 12 17 15 16
17 16 16 18 29 32 33 33 34 35 38 32 25 32 34 31 27 23 15 11 10 10 11 11 11 10 10 10 11 12 12 12 13 13 13 14 15 14 14 14 14 14 7 13 18 16 14 10 12 15 14 11 7 6 9 10 9 9 7 7 7 7 6 7 8 8 7 7 6 12 12 14 15 16
18 18 18 21 33 34 34 35 33 33 33 25 33 34 38 33 27 17 15 12 12 12 12 12 11 12 11 11 11 12 12 12 12 12 12 12 13 13 12 13 13 7 7 14 16 16 14 11 11 12 13 14 12 12 9 2 3 12 14 11 6 7 8 8 7 7 7 6 6 6 6 7 6 7
16 24 35 37 36 35 36 38 37 32 33 37 36 37 38 30 17 15 13 13 12 13 13 13 13 13 12 13 13 12 9 8 8 9 9 9 8 5 3 2 1 3 7 10 14 15 14 12 11 11 8 8 11 10 10 12 13 11 11 12 8 8 7 6 6 7 7 8 7 7 6 6 5 6
37 36 35 37 35 31 28 22 19 18 20 29 34 37 35 20 17 15 13 13 13 14 13 14 14 14 12 11 10 8 6 7 9 9 8 6 5 6 7 5 1 2 0 6 12 13 14 13 12 13 12 10 10 9 8 8 8 9 11 15 11 7 5 7 7 6 7 6 7 6 5 5 5 6
20 24 25 21 26 26 32 33 33 29 29 25 22 19 18 17 15 14 13 14 14 14 13 13 12 12 11 7 6 7 9 10 9 8 8 9 8 8 7 9 5 4 2 3 0 6 9 9 9 12 14 11 6 6 7 7 10 12 10 9 11 10 10 8 7 8 8 7 6 5 5 5 5 6
18 18 21 24 19 17 16 16 14 15 16 17 17 16 15 15 15 17 19 17 14 13 12 11 10 8 7 8 10 9 9 9 9 8 9 10 9 8 9 8 8 5 4 3 4 5 5 4 4 6 8 12 13 8 6 7 10 10 10 10 7 3 4 7 9 7 8 7 7 6 6 6 6 5
16 14 14 12 13 12 12 14 12 14 15 15 15 18 16 13 13 12 12 13 14 13 12 12 12 11 10 10 9 9 9 10 9 8 9 9 10 8 9 12 10 9 9 6 5 5 6 6 7 6 6 5 2 8 12 9 6 8 11 11 8 5 5 7 7 8 9 8 5 6 6 6 6 6
16 12 12 12 10 12 9 11 11 13 14 15 12 10 12 12 10 10 11 12 13 12 12 12 11 11 10 10 10 10 11 9 8 9 11 10 9 10 11 11 9 9 9 9 9 8 7 7 8 9 9 7 6 4 0 6 9 8 8 8 9 8 5 6 6 8 8 7 7 5 5 5 6 5
11 11 10 11 10 12 11 12 11 12 13 13 12 11 10 10 12 13 12 12 12 12 11 11 11 10 10 10 10 11 11 11 9 8 8 8 9 11 11 11 9 9 9 10 10 8 10 10 9 8 5 4 3 3 2 1 6 8 6 6 4 5 6 6 5 7 7 6 6 6 4 4 5 4
12 12 12 11 9 8 9 10 10 10 12 13 13 12 10 11 11 12 13 12 13 12 11 10 9 10 10 10 10 11 11 10 10 10 9 9 10 9 8 9 10 10 9 11 12 9 10 11 11 12 12 9 8 7 6 7 6 5 10 8 7 7 5 6 6 5 5 5 6 5 6 5 5 4
13 12 13 13 11 10 10 9 9 9 11 12 13 12 10 9 10 11 11 11 10 9 10 9 9 9 9 9 9 9 9 10 10 10 11 10 10 10 10 8 9 9 10 10 9 10 10 11 10 12 13 12 12 14 9 4 11 11 4 8 8 7 7 6 6 5 4 5 4 5 5 4 4 4
13 13 13 13 12 11 11 10 11 10 11 11 12 11 9 7 7 8 6 7 8 7 9 10 9 9 9 9 10 9 9 10 10 11 11 11 11 11 11 11 10 10 10 9 9 9 9 10 11 12 13 15 15 13 9 5 5 10 14 8 9 9 7 7 8 7 6 4 4 4 4 3 5 4
12 13 13 12 11 10 10 10 10 10 10 10 11 11 7 5 5 5 6 7 7 9 9 9 9 9 10 10 10 11 11 10 10 11 11 11 12 13 11 10 9 9 10 9 8 8 8 10 10 11 11 12 14 12 11 10 10 9 13 18 6 7 7 8 7 6 7 6 4 3 1 2 4 9
13 12 12 11 11 9 9 9 9 9 10 10 10 8 7 7 6 7 8 8 9 10 10 10 10 9 9 10 10 10 11 15 15 13 13 12 11 11 11 10 10 11 10 10 10 10 9 9 9 9 7 3 4 5 6 5 5 4 5 13 15 9 6 6 7 6 5 4 4 4 3 2 1 3
12 13 13 11 10 9 9 9 9 9 10 10 9 8 8 7 7 6 6 7 7 8 8 8 8 10 10 10 11 11 12 10 10 10 10 10 11 11 12 11 9 10 11 12 10 11 11 10 8 9 7 6 7 8 8 6 5 5 6 6 14 15 12 8 6 5 4 4 5 4 4 3 3 2
13 13 13 14 12 9 9 9 9 9 10 10 8 7 8 7 6 8 9 10 10 9 8 8 9 9 9 10 10 10 10 11 10 9 9 9 10 9 10 10 10 9 10 11 11 11 7 8 10 9 8 8 8 9 8 8 8 7 7 4 3 6 12 12 10 7 6 5 5 2 1 2 1 2
13 13 13 14 14 10 8 8 8 8 9 7 6 7 7 7 6 7 6 7 7 7 7 7 7 7 7 7 8 9 9 9 9 10 11 11 11 11 11 10 10 10 10 8 7 7 8 9 9 9 9 7 6 6 8 7 7 7 6 5 4 3 2 3 4 7 9 9 8 6 4 3 2 2
13 14 14 13 13 12 7 7 7 7 7 7 8 6 5 6 6 6 6 6 6 7 6 6 6 7 7 7 7 7 8 9 10 11 11 11 11 11 10 10 9 9 8 7 8 8 8 8 8 10 10 8 6 7 8 9 9 7 6 5 3 4 2 1 2 3 3 4 5 7 10 12 12 13
12 12 13 12 12 10 10 8 5 4 4 4 3 5 4 3 2 2 2 3 3 4 5 6 6 6 6 7 8 8 7 7 8 7 8 8 8 8 8 9 9 9 8 9 10 9 8 8 7 6 6 5 5 5 6 8 9 6 6 5 5 4 3 2 2 1 2 3 6 10 11 13 14 15
Wind_Direction
249 251 245 242 246 238 229 231 232 234 229 225 222 206 218 214 238 244 238 232 218 237 201 198 217 203 204 203 200 195 202 196 189 194 197 197 201 204 205 205 202 199 197 195 194 194 197 199 203 207 209 212 215 211 215 216 145 174 162 187 202 211 216 208 205 204 192 192 186 190 188 164 189 184
255 253 257 251 250 244 239 235 225 228 228 228 225 223 225 210 229 239 243 253 187 220 219 209 200 199 206 201 196 199 204 188 189 193 195 198 201 201 203 207 207 203 199 196 194 195 197 198 202 206 208 208 208 209 210 210 206 204 200 201 208 212 212 209 206 201 196 195 201 199 197 199 200 211
259 260 259 256 255 245 245 247 235 232 227 229 223 235 228 229 230 238 230 256 232 179 204 218 209 193 202 195 196 197 201 189 191 192 195 201 196 196 205 210 212 208 202 197 196 196 198 199 202 205 207 208 208 208 207 207 206 204 205 208 209 212 212 210 209 206 204 203 203 203 210 213 215 217
261 262 263 260 257 254 247 251 243 238 232 224 227 225 225 233 234 236 237 238 249 187 206 204 206 194 191 192 191 198 199 193 192 195 197 193 182 199 208 212 214 211 205 201 198 198 198 200 202 205 207 208 209 208 208 206 206 205 206 209 211 210 214 215 206 205 207 201 205 209 209 208 210 207
260 259 260 261 259 254 252 251 249 246 238 232 232 229 224 231 226 223 237 244 254 240 243 194 204 196 173 194 195 193 194 185 197 198 197 187 194 199 204 208 215 215 209 204 200 198 199 200 202 205 207 208 211 211 210 207 206 206 205 206 211 213 212 210 208 208 206 203 205 207 206 205 204 201
268 259 260 263 261 256 251 253 250 243 243 236 237 235 224 232 231 210 220 244 249 248 200 229 200 177 193 198 193 192 189 199 190 195 195 197 197 200 200 202 210 215 213 208 203 200 198 201 202 203 205 206 209 211 210 208 207 206 206 205 210 214 212 210 212 211 203 202 206 208 205 202 202 203
269 270 263 262 260 260 259 255 250 247 245 239 237 244 227 235 236 218 215 228 244 242 239 202 194 198 192 199 195 201 203 198 189 191 194 197 199 200 197 201 203 211 212 211 207 203 201 202 203 204 204 205 207 209 209 207 206 206 206 206 205 205 205 209 210 211 205 208 210 208 205 204 203 205
263 260 265 261 254 253 256 257 250 245 243 242 242 244 240 235 242 228 215 223 242 233 232 219 201 198 188 220 212 206 196 184 189 198 200 194 198 199 199 200 200 207 211 212 211 208 205 203 205 205 204 204 206 207 208 207 206 205 206 206 204 202 202 203 205 204 203 209 208 206 206 205 207 208
268 264 258 262 253 248 254 257 250 245 243 245 242 245 242 238 239 236 222 230 226 238 238 235 214 197 217 222 200 188 180 186 195 200 198 199 199 198 199 201 208 200 211 213 215 213 209 206 206 207 206 205 205 207 206 206 207 207 206 204 204 202 201 200 200 198 198 203 207 209 210 207 206 213
270 271 270 268 259 249 248 254 248 239 243 244 244 246 246 239 237 236 236 233 236 232 240 233 212 204 200 204 198 195 191 181 187 201 209 191 197 189 198 210 205 202 201 204 212 214 212 211 209 208 207 206 206 206 207 207 207 207 206 203 203 204 203 201 198 197 198 200 202 204 208 210 210 212
267 265 268 268 262 257 252 254 252 245 244 240 244 242 244 238 234 237 236 231 235 238 242 237 207 203 211 197 203 201 196 201 196 190 182 202 203 202 205 208 206 203 209 213 208 209 210 209 207 209 209 209 208 208 207 207 207 207 203 203 203 203 204 202 199 197 197 196 197 199 200 208 214 214
273 267 264 262 259 255 256 254 254 246 248 245 246 242 237 235 234 237 238 235 234 237 240 239 224 205 192 211 218 102 173 201 227 217 194 196 192 204 208 208 197 202 201 203 203 209 210 213 212 212 212 211 210 209 209 208 207 207 203 202 203 203 204 204 201 198 196 194 194 196 196 196 206 215
273 272 266 262 260 256 254 252 250 247 241 242 248 243 223 228 232 237 237 234 233 237 237 243 225 200 205 205 188 180 191 200 207 192 184 217 214 203 202 218 211 200 199 204 198 204 198 200 207 203 204 209 209 211 208 209 208 205 204 202 202 204 203 203 202 198 195 193 193 195 195 197 201 211
271 264 265 263 260 260 259 258 256 254 250 246 244 246 233 226 233 233 237 234 232 235 237 236 228 208 219 211 204 202 206 203 176 165 194 209 197 180 219 233 218 198 188 196 206 210 193 197 208 205 208 203 204 202 204 204 201 204 204 203 203 204 202 202 200 197 195 193 193 194 197 198 202 206
267 269 265 264 266 265 264 262 258 256 254 253 250 249 244 235 230 233 236 237 233 236 238 238 232 226 228 222 210 213 204 193 193 196 193 195 180 192 194 216 214 192 187 201 207 218 203 193 207 209 208 199 199 199 205 198 198 200 203 204 203 202 201 201 200 197 195 194 193 195 195 198 200 204
264 263 262 261 261 257 255 257 260 258 255 253 251 249 247 244 239 234 231 236 238 233 241 241 235 234 235 229 206 210 199 200 202 204 190 196 196 197 205 213 211 190 177 183 201 221 199 198 212 211 213 203 201 199 197 200 200 198 202 203 202 200 201 201 199 198 197 195 195 195 197 197 199 203
269 266 264 263 256 254 253 253 253 255 255 255 252 249 247 244 242 241 239 235 235 234 239 242 243 234 239 238 218 200 200 181 202 195 204 207 210 210 211 215 204 140 174 180 203 220 205 188 204 214 211 201 203 201 201 200 199 198 200 201 201 200 199 198 198 198 199 199 197 197 197 196 198 200
269 267 267 266 263 258 253 247 247 246 248 250 251 249 246 243 243 242 241 240 239 236 237 240 247 244 238 244 233 195 181 186 202 198 211 205 208 210 219 218 197 146 173 186 194 217 202 193 198 214 212 192 204 203 199 199 198 198 198 198 198 197 195 195 197 199 201 200 199 199 198 198 198 199
276 272 270 266 264 264 258 251 242 242 243 244 244 244 244 241 239 237 236 236 235 234 233 237 244 249 243 248 249 189 195 199 202 199 204 202 204 214 226 235 210 189 191 194 184 215 207 163 196 218 197 189 203 200 202 201 199 198 197 196 195 193 192 193 196 198 200 201 201 201 201 200 200 200
281 280 273 269 266 262 261 254 246 243 240 242 242 243 243 243 240 239 234 232 230 229 230 233 239 243 241 237 244 212 198 208 205 205 212 213 211 213 215 223 204 202 191 193 194 216 179 178 200 212 185 182 200 195 199 206 201 198 196 195 193 191 190 192 194 197 199 200 202 204 204 203 203 203
277 275 275 273 272 266 263 256 252 250 245 244 241 241 242 242 240 242 240 236 234 232 231 233 236 240 240 238 239 238 213 198 190 191 196 211 197 205 217 227 205 215 188 199 205 204 186 193 190 181 167 189 197 194 198 202 203 199 197 195 193 191 191 193 194 195 197 198 200 204 206 206 206 204
275 274 275 273 268 265 262 261 258 254 249 246 243 242 240 243 242 243 241 237 232 232 233 234 237 239 240 238 237 236 235 218 187 191 209 209 191 209 214 222 211 208 184 203 193 194 219 156 165 148 105 125 231 205 197 201 211 202 199 196 195 194 193 193 193 195 196 197 199 203 206 208 208 206
273 275 276 275 274 275 274 270 265 260 253 246 241 241 240 241 240 239 237 232 227 225 228 235 237 240 240 238 234 234 236 227 203 204 214 201 197 208 216 218 191 206 230 205 179 193 201 149 184 153 134 192 259 176 190 192 201 203 192 195 197 197 194 193 194 195 195 195 198 202 206 207 206 184
274 270 271 274 273 271 269 268 267 264 256 248 241 239 239 237 241 236 236 229 221 225 225 230 230 233 234 231 229 230 228 233 219 215 214 211 205 212 218 211 206 217 215 163 170 195 177 158 178 184 180 142 198 190 183 188 195 201 187 189 188 196 195 195 197 197 194 195 198 203 204 206 203 170
269 267 261 262 270 272 272 272 270 265 261 255 245 238 236 233 236 234 238 232 222 223 228 230 230 231 231 226 224 223 225 223 223 220 216 215 213 213 217 215 214 229 212 166 171 186 175 177 181 172 219 132 161 125 191 176 189 191 190 184 182 192 185 191 184 192 194 195 200 202 203 203 204 185
279 278 275 263 267 271 270 269 269 269 267 259 254 242 235 233 232 233 236 227 223 220 227 225 226 227 224 224 222 224 223 221 219 219 216 215 217 217 219 217 217 224 211 176 177 183 163 188 181 180 187 157 230 147 151 185 195 164 186 188 190 189 181 175 166 170 163 170 189 197 200 203 204 200
285 286 283 280 279 276 273 270 267 266 264 264 256 251 246 239 230 232 235 224 210 218 220 221 223 222 221 221 223 222 224 222 218 219 217 215 216 221 224 226 228 231 203 161 186 186 186 187 182 180 184 191 157 165 176 168 191 176 175 183 176 179 176 170 174 175 173 181 185 202 202 206 203 204
285 286 287 288 286 284 282 277 271 265 262 260 258 254 250 246 239 233 233 224 216 217 219 219 220 223 220 221 223 223 221 221 217 218 221 219 216 219 222 224 229 232 156 173 186 193 189 180 184 196 185 173 173 178 189 248 116 178 173 180 146 178 172 175 172 171 181 177 179 198 196 198 200 201
278 279 281 282 279 277 277 278 277 273 266 260 257 255 251 248 242 237 228 225 217 219 218 218 221 223 220 218 222 221 217 216 215 215 219 216 209 196 180 155 155 159 167 179 186 191 194 189 184 181 185 192 191 193 177 182 170 169 165 164 180 186 168 168 164 173 170 179 188 195 194 186 191 193
281 284 285 285 285 285 286 286 285 271 258 257 254 252 251 244 239 233 231 223 221 221 218 218 218 222 220 219 219 214 198 201 210 203 193 160 154 157 158 146 97 23 333 192 190 193 197 197 186 179 183 190 198 185 182 152 180 180 173 175 144 137 168 174 166 164 169 177 181 188 195 190 189 179
276 274 274 275 277 280 282 285 287 288 275 256 251 245 241 240 237 235 228 224 222 222 220 220 218 222 220 207 191 196 197 208 208 193 179 183 180 164 171 175 159 116 29 20 197 208 204 201 189 176 177 180 166 176 165 164 160 169 179 175 164 173 178 158 167 173 179 180 175 176 186 194 196 200
263 265 271 274 273 275 275 276 284 285 280 255 241 238 232 231 233 235 233 228 226 223 222 221 218 214 200 195 202 199 201 204 198 183 182 186 178 174 159 162 181 150 116 79 59 56 71 83 155 182 183 175 174 160 125 153 170 168 169 170 159 65 115 141 163 166 175 165 177 187 194 193 194 193
257 258 265 263 271 277 283 289 283 284 283 270 247 236 227 221 222 224 225 227 224 220 215 217 210 210 199 203 194 194 196 201 192 180 186 189 174 177 182 189 175 164 158 158 132 101 93 84 68 69 61 32 33 151 151 146 173 168 167 169 152 133 127 158 158 165 161 167 182 182 193 203 201 203
288 286 280 278 276 276 272 275 281 285 287 284 271 260 243 234 223 220 224 227 228 222 219 216 211 206 196 196 191 190 198 197 187 181 181 186 174 176 188 190 184 179 167 158 154 146 128 103 99 73 59 59 42 33 356 161 154 162 166 160 166 162 153 145 159 163 173 174 170 179 190 203 205 194
277 275 266 267 266 267 267 272 277 286 291 289 274 257 252 245 238 231 227 226 225 225 220 216 212 204 197 196 189 192 195 192 178 178 180 176 177 187 188 186 172 175 167 156 145 153 141 140 129 110 87 80 70 341 10 6 140 150 137 150 96 140 156 158 162 171 177 181 181 185 193 190 210 200
279 269 268 263 257 256 259 264 272 278 285 290 283 260 243 242 240 236 228 221 222 222 220 213 207 200 198 195 192 191 190 179 176 173 172 175 183 188 192 186 176 174 167 164 162 160 159 159 157 156 155 157 163 183 234 215 181 157 161 171 174 157 159 151 168 173 176 173 190 171 190 203 205 201
280 270 265 260 253 250 255 259 261 269 275 283 284 267 250 244 241 234 227 221 219 214 218 215 209 200 196 193 188 188 179 173 175 176 177 178 179 181 182 182 177 174 171 175 166 163 164 167 172 171 167 170 173 196 194 139 191 204 138 164 161 167 162 162 159 173 184 177 191 188 187 196 210 208
279 276 267 260 253 250 251 254 258 260 266 273 278 266 246 244 243 236 220 222 223 217 219 218 204 195 193 185 180 178 178 181 176 174 178 175 175 185 188 182 175 174 175 167 167 173 175 171 175 180 176 182 184 190 174 167 158 209 200 173 163 168 162 156 172 178 186 188 168 195 188 202 227 229
281 277 271 262 256 248 246 245 245 253 258 266 272 260 234 231 238 238 223 216 216 218 216 212 206 193 188 184 181 175 173 173 177 182 180 183 184 183 182 179 172 171 164 169 169 174 174 185 185 185 186 185 192 191 175 169 193 195 193 189 140 147 166 171 172 168 158 176 175 189 145 248 271 273
289 287 280 267 256 246 241 242 244 246 253 255 261 251 224 218 213 222 225 220 218 218 212 207 192 184 184 181 179 178 180 180 182 182 182 183 184 181 179 175 171 166 168 175 173 180 185 190 188 184 188 159 59 89 91 93 52 65 153 190 181 172 163 149 169 169 166 173 163 158 195 210 213 269
308 305 300 288 263 244 236 233 238 240 244 251 250 241 236 222 216 214 221 217 209 203 201 192 184 183 184 181 181 176 181 187 186 182 178 177 175 178 173 166 166 172 173 182 174 181 189 189 173 149 108 107 125 101 94 104 130 142 159 174 187 183 184 177 162 155 147 170 151 164 186 199 221 238
310 307 305 304 290 252 235 231 230 235 242 244 241 233 234 233 223 216 210 210 204 202 194 189 185 188 187 182 180 179 180 177 174 170 169 166 169 168 170 170 170 171 174 179 179 185 165 146 158 148 125 136 135 142 162 163 153 155 155 120 40 167 179 182 183 180 170 155 138 138 185 271 230 242
320 314 310 309 306 279 241 234 232 237 249 255 245 233 220 222 223 221 217 213 207 198 194 187 182 179 177 173 173 174 171 169 170 169 167 170 169 168 172 175 174 173 176 171 154 146 142 147 147 143 151 148 164 149 157 155 150 145 145 132 143 77 86 174 198 207 204 202 200 192 183 175 153 248
324 320 314 313 316 313 275 235 235 239 243 246 243 234 221 214 215 216 206 203 196 190 177 168 167 166 164 163 161 164 171 169 166 165 169 172 172 171 170 164 161 157 148 139 138 141 142 146 150 153 156 167 163 148 145 133 128 148 139 133 107 107 155 54 30 9 348 316 278 267 267 265 264 264
316 315 317 326 328 336 350 346 340 303 273 239 221 222 238 242 240 216 176 164 157 144 146 156 157 157 153 153 157 163 161 156 157 158 156 154 156 153 149 149 147 147 146 148 143 142 145 143 143 142 139 139 134 130 128 129 136 126 133 136 142 151 151 132 133 264 277 302 282 275 275 275 277 279